Vertical_Velocity
-6 -4 -1 1 0 -4 0 -0 -1 1 -1 -1 1 1 1 0 2 1 0 1 3 6
-0 1 0 -4 -4 3 4 2 -0 -1 1 -1 -1 -0 -0 1 3 -3 3 5 3 -2
-1 5 2 -1 -0 1 1 -0 -2 -5 -2 -3 -4 -1 -3 -1 -0 -0 4 1 2 10
1 0 1 0 -0 -5 -4 -1 -1 -4 -4 -1 -1 -1 -0 -2 -5 -7 -2 0 1 4
0 -0 -3 -3 -4 -3 -1 -2 -7 -5 -2 -0 1 -3 1 -2 -5 -5 -1 2 0 3
1 1 2 -1 -4 -4 -3 -4 -2 -4 -2 -5 -4 -5 -4 -3 -5 -3 -3 -3 -1 5
-4 -2 -5 -3 -3 -1 -1 -5 0 -3 -2 -2 -2 -2 -3 -1 -3 -2 -4 -4 -2 3
-2 -2 -1 -3 -4 -2 2 -4 -0 -0 -4 -3 -5 1 -3 -3 -4 -1 1 -3 2 6
-1 -0 -2 -1 -2 -5 -5 -3 -4 -1 -4 -6 -4 -3 -3 -4 -2 -4 -0 -2 -3 1
-4 -3 -1 -0 1 -2 -2 -2 -2 -2 -2 -1 -4 -4 -4 -1 -3 -2 -3 -2 -1 -3
-1 -3 -3 -4 -2 -1 1 -2 -2 -2 -3 -3 0 -5 -1 -5 -1 -1 -2 -3 -3 -1
-0 0 -2 -2 -4 -4 -4 -1 -1 -0 1 -0 -2 -2 -2 -2 -4 -4 -1 -1 -4 -3
3 -0 2 2 -1 -0 -3 -2 -3 -1 -3 -2 1 -1 -2 -1 -0 -1 -2 -1 3 1
-1 -4 1 0 -1 -1 -1 -1 -2 -2 -0 -4 -4 -2 0 -1 -1 -2 -3 -2 -5 -2
Height
5677 5672 5668 5664 5661 5656 5653 5651 5646 5643 5639 5636 5631 5626 5622 5617 5614 5608 5608 5608 5610 5612
5671 5666 5662 5659 5655 5649 5646 5643 5638 5633 5629 5623 5618 5613 5607 5601 5596 5591 5587 5584 5583 5585
5669 5663 5659 5654 5648 5643 5637 5633 5629 5624 5617 5611 5606 5599 5593 5586 5577 5570 5562 5556 5555 5558
5666 5660 5653 5647 5642 5636 5631 5626 5621 5616 5607 5600 5594 5586 5579 5570 5561 5550 5537 5526 5523 5528
5663 5657 5651 5645 5638 5633 5627 5622 5616 5608 5600 5593 5585 5576 5565 5556 5545 5531 5513 5495 5493 5506
5661 5655 5649 5643 5637 5631 5623 5616 5609 5602 5593 5585 5577 5567 5554 5544 5532 5519 5503 5488 5486 5496
5658 5652 5647 5641 5635 5628 5621 5613 5605 5597 5589 5580 5571 5560 5548 5537 5525 5513 5500 5492 5490 5493
5653 5648 5642 5637 5631 5624 5618 5611 5603 5595 5586 5576 5566 5556 5545 5533 5522 5511 5502 5494 5493 5493
5647 5642 5637 5632 5627 5621 5615 5608 5601 5593 5584 5574 5564 5554 5543 5532 5522 5512 5504 5498 5496 5498
5640 5636 5632 5627 5622 5617 5611 5604 5597 5590 5582 5574 5565 5555 5544 5533 5523 5517 5508 5502 5500 5500
5634 5630 5626 5622 5617 5611 5606 5600 5594 5586 5580 5572 5565 5557 5547 5537 5527 5519 5514 5508 5503 5502
5627 5623 5619 5615 5610 5606 5600 5595 5589 5583 5577 5570 5564 5557 5550 5541 5533 5525 5517 5512 5508 5506
5617 5614 5611 5607 5603 5598 5593 5588 5583 5578 5573 5568 5561 5555 5549 5543 5537 5530 5523 5517 5512 5508
5611 5607 5603 5599 5595 5591 5586 5581 5576 5571 5567 5563 5559 5553 5548 5543 5538 5532 5527 5522 5517 5514